Lexington Weather

Lexington, Massachusetts, USA

44°F
1/23/2020 12:56pm 
  • Lexington Conditions: Mostly cloudy
  • Temperature: 44.1°F / 6.7°CWarmer 2.7°F than last hour.
  • Dew Point: 20.7°FDecreased 0.9°Fsince last hour.
  • Relative Humidity: 39%Decreased 6.0% since last hour.
  • Wind: Calm, 10-min avg: Calm, gust: 1 mph
  • Barometer: 30.29 inFalling 0.02  inHg/hr Falling Slowly
  • Visibility: 10 miles
  • Rain Today: 0.02 in
  •   

Regional Weather Roundup
for Boston / Norton, MA

        
000
ASUS41 KBOX 230101
RWRBOX

REGIONAL WEATHER ROUNDUP
NATIONAL WEATHER SERVICE BOSTON/NORTON MA
800 PM EST WED JAN 22 2020

NOTE:  "FAIR" INDICATES FEW OR NO CLOUDS BELOW 12,000 FEET WITH NO 
SIGNIFICANT WEATHER AND/OR OBSTRUCTIONS TO VISIBILITY.

MAZALL-230200-
EASTERN MASSACHUSETTS
  
CITY           SKY/WX    TMP DP  RH WIND       PRES   REMARKS
BOSTON         FAIR      34  18  52 SW5       30.42S WCI  30          
BEVERLY        FAIR      28  16  60 SW3       30.41R                  
LAWRENCE       FAIR      28  15  58 S5        30.42R WCI  23          
BEDFORD        FAIR      25  14  63 CALM      30.40R                  
BLUE HILL        N/A     30  14  51 S9        30.38R WCI  22          
NORWOOD        FAIR      23  14  68 CALM      30.43R                  
MARSHFIELD     NOT AVBL                                               
PLYMOUTH       FAIR      22  17  81 CALM      30.43R                  
TAUNTON        FAIR      21  16  81 CALM      30.43R                  
NEW BEDFORD    FAIR      22  16  78 CALM      30.43R                  
$$

MAZALL-230200-
CAPE COD AND THE ISLANDS
  
CITY           SKY/WX    TMP DP  RH WIND       PRES   REMARKS
FALMOUTH       CLEAR     23  16  74 CALM      30.42S                  
HYANNIS        NOT AVBL                                               
CHATHAM        FAIR      26  18  71 CALM      30.45R                  
PROVINCETOWN   FAIR      25  19  78 S6        30.44R WCI  18          
NANTUCKET      FAIR      24  18  77 CALM      30.44F                  
MARTHAS VNYRD  FAIR      20  13  74 CALM      30.44R                  
$$
 
MAZALL-230200-
CENTRAL AND WESTERN MASSACHUSETTS
  
CITY           SKY/WX    TMP DP  RH WIND       PRES   REMARKS
WORCESTER      FAIR      27  15  61 SW10      30.36R WCI  17          
FITCHBURG      FAIR      21  14  74 CALM      30.38F                  
ORANGE         FAIR      20  15  81 CALM      30.39F                  
SPRINGFIELD    NOT AVBL                                               
WESTFIELD      CLEAR     21  14  73 CALM      30.40S                  
NORTH ADAMS    FAIR      17  12  80 CALM      30.40S                  
PITTSFIELD     FAIR      20  12  71 W3        30.35S                  
$$
 
RIZALL-230200-
RHODE ISLAND
  
CITY           SKY/WX    TMP DP  RH WIND       PRES   REMARKS
PROVIDENCE     FAIR      25  19  78 S5        30.44R WCI  19          
NEWPORT        FAIR      27  21  78 CALM      30.43R                  
BLOCK ISLAND   FAIR      29  24  82 SW3       30.45R                  
SMITHFIELD     FAIR      25  17  72 CALM      30.41R                  
WESTERLY       FAIR      28  20  71 CALM      30.45R                  
$$
 
CTZALL-230200-
CONNECTICUT
  
CITY           SKY/WX    TMP DP  RH WIND       PRES   REMARKS
BRADLEY INTL   FAIR      23  15  71 CALM      30.41S                  
HARTFORD       FAIR      25  18  74 CALM      30.43S                  
BRIDGEPORT     FAIR      28  20  71 CALM      30.44R                  
DANBURY        FAIR      23  16  74 CALM      30.43R                  
GROTON         NOT AVBL                                               
NEW HAVEN      FAIR      23  17  78 CALM      30.43R                  
CHESTER        NOT AVBL                                               
MERIDEN        FAIR      22  17  81 MISG      30.43R                  
WILLIMANTIC    FAIR      20  14  77 CALM      30.43S                  
OXFORD         FAIR      26  16  65 CALM      30.41R                  
$$

MEZ002-015-021-024-NHZ003-005-008-011-012-014-VTZ005-008-230200-
NORTHERN NEW ENGLAND
  
CITY           SKY/WX    TMP DP  RH WIND       PRES   REMARKS
PORTLAND ME    FAIR      28  17  63 S3        30.38S                  
BANGOR ME      FAIR      18  16  92 CALM      30.35S                  
CONCORD NH     FAIR      22  15  75 CALM      30.38R                  
MANCHESTER NH  MOCLDY    26  16  65 CALM      30.37S                  
NASHUA NH      FAIR      18  15  88 CALM      30.39F                  
PORTSMOUTH NH  NOT AVBL                                               
JAFFREY NH     FAIR      20  14  77 CALM      30.35S                  
KEENE NH       FAIR      19  17  92 CALM      30.39S                  
BURLINGTON VT  MOCLDY    31  19  61 S12       30.32S WCI  22          
MT. WASHINGTON NOT AVBL                                               
$$

NYZ052-076-230200-
EASTERN NEW YORK
  
CITY           SKY/WX    TMP DP  RH WIND       PRES   REMARKS
ALBANY         FAIR      30  15  53 CALM      30.41F                  
NEW YORK CITY  FAIR      36  19  50 E6        30.44R WCI  31          
$$
 
ANZALL-230200-
MARINE OBSERVATIONS
  
STATION/POSITION TIME  TEMP    WIND        PRES    VSBY  WAVE
                       AIR SEA DIR/SP/G                  HT/PER
                 (UTC) (F)     (DEG/KT/KT) (MB)    (MI)  (FT/S)
BOSTON BUOY      2350   35 42  180/  8/ 10 1029.5          1/ 9
BUZZARDS BAY     0000   35     240/  6/  7 1030.8R
NANTUCKET SOUND  NOT AVBL
MASS BAY-STELLWA 0004   35 42  220/ 12/ 14 1027.9R  1 7/8  2/ 8
ISLE OF SHOALS   0000   35     220/ 13/ 14 1029.0R
S OF BLOCK IS    0030      45                N/A           2/ 8
$$

......................KEY.........................
  SKY/WX - SKY CONDITION/PRESENT WEATHER
  TMP    - TEMPERATURE IN FAHRENHEIT
  DWPT   - DEWPOINT IN FAHRENHEIT
  RH     - RELATIVE HUMIDITY IN PERCENT
  WIND   - DIRECTION AND SPEED IN MPH
  PRES   - MEAN SEA LEVEL PRESSURE IN INCHES OF HG
  WCI    - WIND CHILL INDEX
  VSB    - VISIBILITY IN MILES
  HX     - HEAT INDEX
  TC     - TEMPERATURE IN CELSIUS
  VRB    - VARIABLE WIND DIRECTION
  N/A    - NOT AVAILABLE
  
      

Other recent Regional Weather Roundups

Thu Jan 23, 12:10pm

Thu Jan 23, 12:01pm

Thu Jan 23, 11:10am

Thu Jan 23, 11:00am

Thu Jan 23, 10:10am

Thu Jan 23, 10:00am

Thu Jan 23, 9:10am

Thu Jan 23, 9:00am

Thu Jan 23, 8:10am

Thu Jan 23, 8:00am

Thu Jan 23, 7:10am

Thu Jan 23, 7:01am

Thu Jan 23, 6:10am

Thu Jan 23, 6:00am

Thu Jan 23, 5:10am

Thu Jan 23, 5:00am

Thu Jan 23, 4:10am

Thu Jan 23, 4:01am

Thu Jan 23, 3:10am

Thu Jan 23, 3:00am

Thu Jan 23, 2:10am

Thu Jan 23, 2:00am

Thu Jan 23, 1:10am

Thu Jan 23, 1:00am

Thu Jan 23, 12:10am

Thu Jan 23, 12:00am

Wed Jan 22, 11:10pm

Wed Jan 22, 11:01pm

Wed Jan 22, 10:10pm

Wed Jan 22, 10:00pm

Wed Jan 22, 9:10pm

Wed Jan 22, 9:00pm

Wed Jan 22, 8:10pm

Wed Jan 22, 7:10pm

Wed Jan 22, 7:00pm

Wed Jan 22, 6:10pm

Wed Jan 22, 6:01pm

Wed Jan 22, 5:10pm

Wed Jan 22, 5:00pm

Wed Jan 22, 4:10pm

Wed Jan 22, 4:00pm

Wed Jan 22, 3:10pm

Wed Jan 22, 3:00pm

Wed Jan 22, 2:10pm

Wed Jan 22, 2:00pm

Wed Jan 22, 1:10pm

Wed Jan 22, 1:00pm

Wed Jan 22, 12:10pm

Wed Jan 22, 12:00pm

Wed Jan 22, 11:10am

Wed Jan 22, 11:00am

Wed Jan 22, 10:10am

Wed Jan 22, 10:01am

Wed Jan 22, 9:10am

Wed Jan 22, 9:00am

Wed Jan 22, 8:10am

Wed Jan 22, 8:00am

Wed Jan 22, 7:10am

Wed Jan 22, 7:00am

Wed Jan 22, 6:10am

Wed Jan 22, 6:00am

Wed Jan 22, 5:10am

Wed Jan 22, 5:00am

Wed Jan 22, 4:10am

Wed Jan 22, 4:00am

Wed Jan 22, 3:10am

Wed Jan 22, 3:01am

Wed Jan 22, 2:10am

Wed Jan 22, 2:00am

Wed Jan 22, 1:10am

Wed Jan 22, 1:00am

Wed Jan 22, 12:10am

Wed Jan 22, 12:00am

Tue Jan 21, 11:10pm

Tue Jan 21, 11:00pm

Tue Jan 21, 10:10pm

Tue Jan 21, 10:00pm

Tue Jan 21, 9:10pm

Tue Jan 21, 9:01pm

Tue Jan 21, 8:10pm

Tue Jan 21, 8:00pm

Tue Jan 21, 7:10pm

Tue Jan 21, 7:00pm

Tue Jan 21, 6:10pm

Tue Jan 21, 6:01pm

Tue Jan 21, 5:10pm

Tue Jan 21, 5:00pm

Tue Jan 21, 4:10pm

Tue Jan 21, 4:00pm

Tue Jan 21, 3:10pm

Tue Jan 21, 3:01pm

Tue Jan 21, 2:10pm

Tue Jan 21, 2:00pm

Tue Jan 21, 1:10pm

Tue Jan 21, 1:00pm

Tue Jan 21, 12:10pm

Tue Jan 21, 12:00pm

Tue Jan 21, 11:10am

Tue Jan 21, 11:00am

Tue Jan 21, 10:10am

Tue Jan 21, 10:00am

Tue Jan 21, 9:10am

Tue Jan 21, 9:00am

Tue Jan 21, 8:10am

Tue Jan 21, 8:00am

Tue Jan 21, 7:10am

Tue Jan 21, 7:00am

Tue Jan 21, 6:10am

Tue Jan 21, 6:00am

Tue Jan 21, 5:10am

Tue Jan 21, 5:00am

Tue Jan 21, 4:10am

Tue Jan 21, 4:00am

Tue Jan 21, 3:10am

Tue Jan 21, 3:00am

Tue Jan 21, 2:10am

Tue Jan 21, 2:01am

Tue Jan 21, 1:10am

Tue Jan 21, 1:00am

Tue Jan 21, 12:10am

Tue Jan 21, 12:00am

Mon Jan 20, 11:10pm

Mon Jan 20, 11:00pm

Mon Jan 20, 10:10pm

Mon Jan 20, 10:00pm

Mon Jan 20, 9:10pm

Mon Jan 20, 9:00pm

Mon Jan 20, 8:10pm

Mon Jan 20, 8:00pm

Mon Jan 20, 7:10pm

Mon Jan 20, 7:00pm

Mon Jan 20, 6:10pm

Mon Jan 20, 6:00pm

Mon Jan 20, 5:10pm

Mon Jan 20, 5:00pm

Mon Jan 20, 4:10pm

Mon Jan 20, 4:01pm

Mon Jan 20, 3:10pm

Mon Jan 20, 3:00pm

Mon Jan 20, 2:10pm

Mon Jan 20, 2:00pm

Mon Jan 20, 1:10pm

Mon Jan 20, 1:00pm

Meta data:

ID: 7d150be1-e17d-452d-b711-87cb02de6906
Link: https://api.weather.gov/products/7d150be1-e17d-452d-b711-87cb02de6906